FENGYUN 1C DEB, 30326

Orbit data source: Space-Track

FENGYUN 1C DEB, 30326 is space debris in SSO originally from a launch on Mon, 10 May 1999 UTC launched from the Taiyaun Space Center, China (TSC). Fengyun 1C debris stems from the Chinese weather satellite Fengyun-1C, which was intentionally destroyed by a Chinese anti-satellite missile in 2007. This event dramatically increased the amount of space debris, with thousands of trackable fragments posing hazards to satellites and human spaceflight. The Fengyun 1C debris cloud has become a focal point in discussions about space sustainability and the need for international regulations to prevent the creation of new debris.

Loading next visibility...
Identifier
30326, 1999-025AAM
Orbit
SSO
Country
Flag of CNCN / PRC
Related business
Manufacturer
Unknown
Mission
Spacecraft
Bus & Motor
Unknown
Mass
Unknown
Launch date (UTC)
1999-05-10 (26 years ago)
Launch vehicle
Unknown
Launch site
Taiyaun Space Center, China (TSC)
Object type
Payload
Rocket body
Debris
Shape & HBR
Unknown shape, 0.1 m
Radar Cross Section
Small (<0.1 m²)

Expand to show TLE details & history
Last TLE update: 7 hours ago

TLE from 7 hours ago
0 FENGYUN 1C DEB
1 30326U 99025AAM 25298.46776951  .00000205  00000-0  19811-3 0  9990
2 30326  98.6556 189.4542 0141829 161.4306 199.2102 13.85445732947875
Epoch: 2025-10-25T11:13Z
TLE epoch observation values (Epoch: 2025-10-25T11:13:35.285Z)
Latitude
-0.00004°
Longitude
-13.04071°
Altitude
1,045.755 km
Speed
7.28 km/s
True Right ascension
12h 37m 49s
True Declination
0° 00' 00"
Sunlit
Object was in daylight at epoch
Visualization orbit readout
Latitude
Unknown
Longitude
Unknown
Altitude
Unknown
Speed
Unknown
Apparent Right ascension
Unknown
Apparent Declination
Unknown
Sunlit
N/A
Visualization observer readout
Local Sidereal Time
13:58:53
Azimuth
Unknown
Elevation
Unknown
Doppler factor
Unknown
Orbital elements
Apogee altitude
1,045.655 km
Perigee altitude
838.018 km
Semi-major axis
7,319.973 km
Eccentricity
0.01418
Inclination
98.6556°
RAAN
189.4542°
Arg. of periapsis
161.4306°
True anomaly
198.68426°
Mean anomaly
199.2102°
Eccentric anomaly
198.94636°
Mean motion
3.4656 °/min
Orbital period
103.88 mins
BSTAR
0.00019811
Loading maneuver chart data...
Computing Atmospheric mass density...

Documentation

Showing up to 5 results
|